Theta_e
316 316 316 316 316 316 316 316 316 316 317 317 318 318 317 317 317 313 308 316 322 332 327 316 311 308 306 302 305 306 299 296 298 299 301 304 302 309 310 306 309 312 314 332 341
316 316 316 316 316 316 316 317 317 317 317 317 318 318 317 316 310 310 319 332 332 330 313 309 308 309 304 301 299 298 296 299 304 303 302 305 306 307 308 308 306 309 318 338 340
315 315 315 315 316 316 316 317 317 317 317 318 318 318 317 315 308 308 329 331 327 324 316 312 310 308 301 303 303 299 296 302 305 306 307 306 306 309 307 305 306 305 310 332 334
314 315 314 315 315 316 316 317 317 318 317 318 320 320 318 313 295 309 333 332 326 318 314 311 306 300 297 296 302 297 301 302 304 307 306 305 308 307 308 307 310 310 310 313 331
314 314 314 314 315 315 316 317 317 317 317 319 320 318 311 306 301 317 335 331 324 318 312 306 304 302 297 299 301 299 301 303 305 305 304 306 305 306 306 310 312 311 311 309 311
314 313 313 313 314 315 316 316 316 316 317 320 320 317 310 297 309 311 312 314 316 308 308 306 303 305 302 301 299 302 302 302 303 303 303 302 304 306 308 310 310 310 308 309 309
313 313 313 313 314 316 316 316 315 316 318 321 321 316 307 298 308 309 308 305 308 308 305 307 308 304 304 300 304 302 298 301 302 302 301 304 300 301 307 309 307 308 308 309 310
313 312 313 313 314 315 315 315 315 317 318 321 320 314 301 307 307 307 308 307 308 308 307 306 308 305 301 303 302 297 296 291 298 302 303 301 294 303 306 305 305 308 309 310 309
313 312 312 313 313 314 314 314 316 318 318 321 313 311 296 313 307 308 306 306 307 307 306 309 303 298 300 296 294 293 288 290 295 301 300 299 295 302 305 306 305 306 308 308 308
312 311 311 312 313 313 312 314 319 315 318 318 316 304 301 301 307 308 308 307 304 303 301 299 296 292 290 291 285 289 288 291 291 297 299 297 297 301 304 304 304 305 306 308 309
312 311 311 311 312 312 308 307 301 301 303 300 301 302 303 307 309 306 307 305 303 298 290 294 288 286 290 292 292 291 290 291 295 298 295 294 295 299 301 302 303 304 305 306 308
311 311 311 311 311 311 307 300 301 302 297 309 305 305 307 306 301 304 307 298 296 291 294 289 286 292 294 293 291 289 287 289 294 298 294 292 293 297 300 301 303 304 305 305 306
310 310 310 311 310 310 306 302 307 308 297 305 305 303 302 303 300 301 303 299 294 291 291 287 291 296 294 291 290 288 287 287 287 291 293 291 290 294 298 300 304 306 306 306 306
310 310 310 309 307 307 301 305 308 308 293 297 299 301 302 302 300 306 305 300 295 291 291 290 294 294 291 290 291 285 291 290 289 286 280 292 281 290 295 297 301 304 304 303 303
309 309 309 307 303 303 302 305 310 307 285 297 298 303 302 299 300 301 306 301 294 294 292 289 292 291 290 291 293 288 293 291 289 286 284 285 283 286 294 294 298 301 303 302 304
309 309 308 309 305 308 304 306 307 293 283 294 297 296 296 300 300 302 301 303 300 294 294 292 297 294 292 295 295 295 291 290 288 285 278 284 283 283 288 293 297 300 303 305 305
308 307 304 308 303 308 305 304 291 284 295 291 292 295 295 296 297 298 296 293 289 284 285 290 291 295 297 291 293 291 287 277 274 276 276 286 283 284 292 297 299 301 302 304 304
306 305 308 309 311 308 304 297 285 291 290 294 294 295 294 297 296 296 294 290 294 291 285 282 280 291 295 292 289 289 287 280 274 275 279 287 282 285 296 299 302 306 303 304 305
304 309 311 310 311 308 299 288 285 291 293 291 293 292 292 296 295 294 293 291 293 292 283 282 283 294 295 296 294 290 286 291 280 284 279 282 287 293 299 300 302 302 307 304 305
300 305 310 309 310 305 295 292 292 295 295 294 288 292 288 292 291 291 291 295 294 296 294 289 282 292 294 295 296 294 294 282 282 275 275 283 285 286 293 296 300 299 302 306 308
302 304 307 312 309 301 289 290 295 297 296 293 290 289 291 290 291 289 291 295 298 296 295 291 286 287 291 290 288 291 289 289 289 286 279 279 284 296 294 299 300 299 303 303 307
302 297 309 309 296 297 290 295 296 296 299 296 295 294 292 292 290 290 290 294 300 298 291 292 289 282 285 292 297 294 290 288 284 283 285 283 284 298 298 300 302 302 305 307 308
298 301 309 307 289 290 296 296 299 296 296 294 293 296 294 290 285 292 293 299 300 297 292 293 284 280 282 289 295 289 291 292 290 288 284 282 285 298 298 297 299 301 303 303 308
299 295 300 301 299 293 293 294 294 299 296 297 294 295 292 291 291 289 291 298 301 299 301 296 288 283 279 284 289 288 289 292 290 285 285 285 286 290 292 292 294 297 299 301 304
302 296 299 290 292 293 295 296 294 292 296 294 293 293 289 284 288 289 294 295 298 300 296 292 284 287 289 290 290 290 288 288 286 287 283 285 285 289 290 291 293 295 296 297 301
298 294 297 294 297 296 295 294 294 293 292 291 291 294 292 287 289 288 291 292 291 296 292 294 286 287 285 290 291 289 288 287 286 287 286 286 286 291 292 292 291 292 293 295 299
303 303 296 295 294 292 293 294 294 294 295 296 293 291 292 295 297 297 298 297 295 293 293 292 288 287 282 288 289 284 286 287 287 288 287 282 286 290 289 289 290 292 291 292 296
Wind_Speed
22 22 21 20 19 17 17 17 17 18 17 17 16 15 14 12 15 3 3 4 5 9 8 9 7 8 6 5 5 5 9 14 22 19 16 13 11 17 11 8 11 8 8 12 18
22 22 23 22 20 19 18 17 16 16 15 15 15 13 11 9 4 3 7 7 8 4 4 8 9 8 6 6 5 5 8 22 13 11 13 17 15 17 16 17 8 9 8 19 20
23 23 23 22 21 19 19 19 18 17 16 15 14 12 7 5 3 2 9 9 3 3 3 5 8 10 8 6 11 10 20 17 17 15 18 22 20 12 16 17 6 7 5 15 16
24 24 23 23 22 20 19 18 17 16 16 15 14 8 3 4 7 4 10 9 5 5 4 6 6 6 7 9 11 14 20 21 21 19 25 27 20 23 17 18 10 7 11 6 14
24 24 24 23 22 20 18 18 17 15 14 13 10 7 3 1 5 4 11 8 5 5 6 8 7 8 9 11 15 19 19 19 20 21 23 23 27 23 22 16 15 9 9 11 3
23 25 25 24 23 19 18 18 15 12 12 11 10 9 3 9 7 9 3 3 8 3 6 7 9 11 10 11 14 17 21 22 20 18 18 20 22 17 25 16 13 9 9 9 8
23 24 25 24 23 21 19 19 18 14 12 11 9 6 3 2 4 8 9 7 9 13 12 7 7 7 11 16 10 15 21 22 17 17 16 18 25 18 18 14 11 8 10 8 10
23 24 24 24 23 22 20 18 21 17 14 10 8 4 2 3 5 6 7 7 3 7 12 12 9 8 6 10 14 17 15 16 10 16 19 16 24 19 11 7 11 11 11 9 11
24 25 25 24 24 23 22 22 21 16 10 10 4 2 3 3 10 10 5 7 7 10 11 16 10 8 9 10 11 8 15 17 17 15 17 21 23 12 13 17 18 14 16 9 9
25 25 25 25 24 23 26 22 6 6 5 5 6 5 7 9 9 6 9 13 12 14 13 14 10 10 6 8 10 9 15 17 16 15 22 22 19 18 20 18 21 22 15 13 16
26 26 26 25 26 18 13 7 7 6 7 7 2 4 5 8 11 6 8 13 9 8 6 8 7 10 16 17 16 17 9 12 13 14 15 19 19 18 20 23 22 22 21 16 14
26 27 26 25 24 22 4 5 4 7 7 15 6 6 4 6 12 6 10 8 7 10 10 7 7 10 15 16 16 17 15 9 13 14 12 20 21 16 20 18 17 22 21 13 8
25 26 27 26 26 6 4 7 5 8 3 8 5 1 4 7 7 6 6 3 8 10 10 7 14 11 15 14 14 14 15 12 10 8 11 13 15 10 24 20 20 18 6 4 6
25 25 24 27 4 7 6 7 6 4 2 5 3 3 4 10 2 4 3 7 6 14 7 8 11 11 9 14 12 13 15 14 16 13 9 3 15 14 18 23 17 18 13 5 3
25 25 25 7 6 5 7 6 6 3 3 4 6 0 12 9 6 7 9 6 15 9 7 13 19 19 6 8 14 14 9 9 12 16 7 18 6 8 14 21 15 14 15 9 8
27 25 21 3 3 9 7 7 2 2 1 3 8 13 11 12 12 11 8 12 10 8 11 19 21 5 5 9 10 15 5 12 15 9 10 16 12 11 9 11 16 17 18 17 12
30 29 12 5 5 8 6 5 1 1 8 9 11 15 14 11 14 14 17 14 7 7 13 15 14 6 12 18 12 10 4 5 6 4 8 7 14 10 12 11 11 15 15 17 9
33 28 7 7 6 7 4 4 3 10 10 12 14 18 8 16 9 17 15 8 12 12 8 10 13 11 21 17 13 10 0 4 5 4 11 14 6 10 7 6 14 23 13 12 15
28 4 4 3 8 3 4 1 3 6 10 10 13 8 10 15 9 12 12 4 8 10 4 6 9 22 23 14 9 7 4 9 3 6 3 5 8 3 16 17 23 24 26 16 25
6 4 5 5 4 3 4 2 5 8 8 8 6 7 12 13 11 13 9 11 6 11 6 4 15 10 14 16 4 4 13 3 2 4 6 6 6 3 16 17 19 20 18 22 24
2 4 3 4 2 4 1 4 4 8 6 3 8 9 11 9 9 10 7 12 12 11 7 7 2 11 11 5 13 6 4 3 5 3 3 5 5 2 12 4 11 12 16 17 21
4 4 3 3 4 3 4 1 2 7 3 4 4 5 7 8 4 5 6 11 13 9 8 3 4 6 19 24 7 5 9 5 4 5 5 4 3 20 17 13 15 16 18 20 20
5 5 4 5 3 4 7 10 0 6 2 4 5 3 6 7 2 7 7 8 5 9 2 2 3 8 7 5 1 5 14 8 8 4 6 3 3 7 10 16 15 15 16 20 20
4 5 5 4 3 2 5 6 8 6 4 2 7 8 5 4 6 8 16 5 11 12 5 10 4 6 8 15 15 12 22 18 8 4 7 5 18 20 17 18 20 19 19 17 15
3 4 3 5 5 9 6 7 11 6 4 7 5 9 6 3 8 14 10 11 13 2 4 5 6 7 14 17 19 11 14 18 16 12 6 13 18 15 20 21 19 21 18 21 19
3 3 4 9 10 8 6 7 4 5 5 6 6 8 7 7 8 15 12 11 6 4 1 2 6 7 15 17 11 4 12 17 18 20 9 14 8 18 18 17 18 20 21 18 18
4 4 3 6 6 6 7 7 7 5 3 5 8 7 9 7 12 15 16 17 12 12 2 2 3 4 6 15 16 2 8 8 11 13 9 13 15 15 13 15 14 11 15 19 20
Wind_Direction
349 346 344 343 340 335 331 330 327 325 322 319 320 321 325 327 307 206 309 269 263 304 303 274 266 262 203 260 279 278 243 249 244 243 267 292 292 295 289 277 287 274 201 139 134
350 346 345 343 340 337 334 331 324 319 314 314 316 322 327 323 271 226 237 239 251 262 292 325 330 309 222 224 230 221 233 238 247 272 279 279 288 296 320 304 318 309 81 131 135
350 347 345 341 339 337 335 333 328 321 319 322 322 321 327 308 269 216 189 223 224 175 252 281 282 299 290 240 229 243 254 269 270 269 258 270 283 306 303 304 277 324 195 150 145
350 347 344 341 338 336 333 331 326 324 326 326 320 319 324 239 63 234 172 222 219 223 244 242 274 295 294 277 279 256 249 258 269 261 267 273 284 283 288 275 279 306 316 179 158
348 347 343 339 336 334 329 327 327 328 326 323 332 339 279 177 16 97 185 210 207 237 258 318 310 296 279 293 300 283 283 274 258 257 261 266 266 270 278 282 293 314 328 319 166
346 345 342 338 334 334 328 322 319 319 316 321 336 328 252 58 323 334 310 163 244 307 335 324 317 301 298 296 291 293 294 294 294 295 293 274 259 252 261 278 284 295 297 309 324
345 343 341 337 333 333 329 321 311 308 307 313 337 308 296 96 5 324 7 324 359 337 322 299 301 310 316 304 280 305 306 303 297 301 291 289 284 264 256 259 274 274 280 283 294
345 342 338 335 331 328 326 316 302 298 294 297 324 305 160 39 311 9 324 304 338 323 317 301 264 245 244 262 281 281 282 285 297 298 296 302 272 272 290 309 292 283 264 269 268
343 341 337 333 329 327 323 310 291 290 261 287 267 205 33 34 1 318 253 312 323 343 322 322 315 265 264 268 278 265 264 272 269 269 299 282 285 291 266 268 275 274 262 249 264
341 340 336 332 328 332 327 307 297 309 219 250 255 354 24 352 328 339 21 347 342 352 336 336 318 309 292 271 276 337 323 300 299 306 313 307 312 335 320 286 236 251 244 240 243
340 338 335 331 323 334 344 333 7 358 8 321 93 325 5 334 312 39 6 348 357 351 311 309 2 320 315 318 307 313 276 269 276 289 294 287 289 301 311 302 282 230 242 231 237
338 335 333 328 320 322 270 24 28 207 306 293 241 242 35 288 322 9 39 17 348 322 315 344 295 298 303 298 306 310 298 254 259 277 308 319 301 308 294 284 293 297 223 217 222
336 334 331 327 316 313 246 11 345 36 266 253 182 225 289 320 329 0 39 323 304 300 319 298 280 289 313 305 298 295 299 303 313 321 280 294 292 314 309 311 314 302 290 142 209
335 333 333 329 348 335 354 327 56 35 300 142 175 136 323 312 276 36 43 299 270 290 297 277 299 324 301 304 327 314 318 321 316 308 285 287 302 310 299 299 300 299 304 250 267
333 331 328 324 303 312 315 6 71 52 61 66 58 186 342 307 283 24 342 316 304 306 340 311 344 320 325 313 318 304 341 341 320 315 326 282 254 262 292 284 285 293 286 259 214
330 328 333 103 209 248 339 332 70 3 346 82 21 348 329 317 360 3 0 330 290 3 350 336 307 335 330 340 322 311 5 329 302 273 259 257 251 267 252 264 277 283 296 302 242
328 319 313 295 249 318 345 334 347 340 5 8 343 333 303 8 356 5 350 337 41 353 352 332 330 335 26 340 317 315 50 328 326 3 272 270 245 229 252 231 259 283 286 288 271
327 314 221 220 262 303 359 19 273 38 25 351 336 307 23 7 6 0 336 321 49 44 328 351 324 337 346 305 293 340 270 183 292 293 295 292 264 239 250 286 10 340 277 293 307
319 313 251 251 211 38 38 340 25 13 9 338 317 343 6 349 358 355 327 10 55 46 46 327 278 316 302 351 322 351 349 306 172 248 271 253 285 287 19 7 360 347 350 353 350
320 296 266 290 124 63 56 246 19 38 359 360 350 359 328 341 3 353 311 41 30 27 38 278 295 293 309 313 82 295 300 320 308 300 301 302 299 5 1 359 353 347 331 343 347
285 308 237 292 108 76 199 34 17 345 28 338 318 305 311 1 355 339 300 330 33 360 1 318 215 287 307 321 356 358 6 355 271 143 264 328 315 144 7 17 295 331 345 344 320
323 316 287 25 36 321 42 48 170 285 5 323 293 314 360 332 291 316 308 305 359 4 317 312 269 282 290 294 181 218 322 328 326 351 287 235 308 39 32 4 344 337 343 338 325
316 265 294 52 52 13 316 333 341 330 18 14 321 347 306 288 350 230 269 285 44 285 26 283 293 305 308 17 127 320 312 322 301 214 247 290 335 140 5 10 356 332 340 328 315
303 317 341 359 116 58 352 300 339 300 28 85 273 281 270 291 316 290 303 292 306 336 332 140 214 211 270 279 298 298 307 309 304 289 332 293 335 341 360 355 341 333 327 315 316
237 314 30 308 333 325 286 274 289 332 31 357 306 317 353 311 295 285 298 315 322 166 130 157 257 246 265 286 292 315 34 21 6 341 318 324 320 335 346 338 325 316 321 316 314
302 9 349 294 272 281 277 259 327 332 1 308 297 309 331 293 248 301 325 311 262 268 239 107 276 311 288 289 314 107 32 10 356 348 336 324 331 359 332 326 321 320 319 310 302
346 353 336 269 284 284 273 346 310 2 265 276 302 311 288 317 316 296 277 266 240 258 265 216 264 301 284 314 312 75 33 353 319 341 338 348 321 326 329 326 323 328 330 322 322